Regional Weather Roundup
Issued by NWS

Home | Current Version | Previous Version | Text Only | Print | Product List | Glossary On
Versions: 1 2 3 4 5 6 7 8 9 10 11 12 13 14 15 16 17 18 19 20 21 22 23 24 25 26 27 28 29 30 31 32 33 34 35 36 37 38 39 40 41 42 43 44 45 46 47 48 49 50
000
ASCA44 KEWX 161320
RWRMX

LATIN AMERICA AND CARIBBEAN REGIONAL WEATHER ROUNDUP
NATIONAL WEATHER SERVICE AUSTIN/SAN ANTONIO TX
800 AM CDT TUE SEP 16 2014

NOTE: "FAIR" INDICATED FEW OR NO CLOUDS BELOW 12,000 FEET WITH NO
SIGNIFICANT WEATHER AND/OR OBSTRUCTIONS TO VISIBILITY.

BAJA CALIFORNIA

CITY           SKY/WX    TMP DP  RH WIND       PRES   REMARKS
TIJUANA        CLEAR     73  68  83 CALM      29.78S

NORTHWESTERN MEXICO

CITY           SKY/WX    TMP DP  RH WIND       PRES   REMARKS
DURANGO        FOG       57  55  94 CALM      30.28R VSB 1/2
HERMOSILLO     CLOUDY    82  70  65 SE17      29.80
CD. JUAREZ     CLOUDY    66  64  94 N7        30.14
LOS MOCHIS     RAIN      77  73  88 CALM      29.84

NORTHEASTERN MEXICO

CITY           SKY/WX    TMP DP  RH WIND       PRES   REMARKS
CHIHUAHUA      MOCLDY    64  63  94 CALM      30.19
MATAMOROS      CLOUDY    75  75 100 CALM      30.02  FOG
MONCLOVA         N/A    N/A N/A N/A MISG        N/A
MONTERREY      CLOUDY    72  70  94 SW7       30.07R
NUEVO LAREDO   MOCLDY    75  72  88 CALM      30.03
REYNOSA        MOCLDY    75  72  88 CALM      30.00  FOG
SALTILLO       FOG       63  57  82 CALM      30.26S VSB 1/2
TORREON        PTCLDY    68  61  77 N5        30.15R
CD. VICTORIA   MOCLDY    72  72 100 W3        30.05

WESTERN MEXICO

CITY           SKY/WX    TMP DP  RH WIND       PRES   REMARKS
AGUASCALIENTES CLEAR     54  50  87 NE2       30.31
COLIMA         PTCLDY    72  66  83 CALM      29.99R
GUADALAJARA    FOG       59  57  94 CALM      30.20  VSB 1
MANZANILLO     PTCLDY    75  70  83 N8        29.81
MAZATLAN       MOCLDY    75  72  88 E7        29.85S
P. VALLARTA    PTCLDY    75  72  88 CALM      29.86S
URUAPAN        MOCLDY    59  59 100 CALM      30.18F
ZACATECAS      PTCLDY    50  43  76 CALM      30.34R

CENTRAL MEXICO

CITY           SKY/WX    TMP DP  RH WIND       PRES   REMARKS
CUERNAVACA     PTCLDY    61  57  88 CALM      30.14F
MEXICO CITY    MOCLDY    59  50  72 N3        30.36S
MORELIA        PTCLDY    52  52 100 CALM      30.26
POZA RICA      LGT RAIN  73  72  94 NW9       30.08R FOG
PUEBLA         MOCLDY    57  55  94 NW10      30.36F
QUERETARO      MOCLDY    55  54  94 CALM      30.35S
S. LUIS POTOSI CLOUDY    59  55  88 SE5       30.31R
TAMPICO        PTCLDY    75  73  94 CALM      30.02R
TOLUCA         MOCLDY    50  37  62 NE8       30.39F WCI  47

SOUTHERN MEXICO

CITY           SKY/WX    TMP DP  RH WIND       PRES   REMARKS
ACAPULCO       PTCLDY    77  75  94 NE5       29.87R
B. DE HUATULCO CLOUDY    72  68  88 SE12      29.92
OAXACA         CLOUDY    61  59  94 S3        30.25R
P. ESCONDIDO   CLOUDY    77  70  78 NE9       30.00S
VERACRUZ       LGT RAIN  73  72  94 N6        29.98F
ZIHUATANEJO    MOCLDY    77  72  83 CALM      29.83F

YUCATAN PENINSULA

CITY           SKY/WX    TMP DP  RH WIND       PRES   REMARKS
CAMPECHE       PTSUNNY   75  75 100 E8        29.96S
CANCUN         MOSUNNY   84  75  74 SE6       30.04S HX  92
CHETUMAL       MOSUNNY   82  75  78 CALM      29.96S
CD. DEL CARMEN CLOUDY    81  75  83 SE15      29.94
COZUMEL        MOSUNNY   75  75 100 E6        30.02F
MERIDA         PTSUNNY   77  77 100 E7        30.02R FOG
MINATITLAN     CLOUDY    77  70  78 NE12      29.91
TAPACHULA      CLOUDY    75  73  94 CALM      29.98R
TUX. GUTIERREZ FOG       70  70 100 N2        30.02S VSB 1
VILLAHERMOSA   CLOUDY    77  75  94 CALM      29.95R

CENTRAL AMERICA

CITY           SKY/WX    TMP DP  RH WIND       PRES   REMARKS
BELIZE CITY    PTSUNNY   82  79  89 E5        29.96R HX  93
MANAGUA        PTSUNNY   77  72  83 CALM      29.92S

CARIBBEAN

CITY           SKY/WX    TMP DP  RH WIND       PRES   REMARKS
ARUBA          MOSUNNY   86  73  66 E15       29.94R HX  93
CURACAO        MOSUNNY   86  77  74 E10       29.97R HX  97
KINGSTON       MOSUNNY   82  73  74 SW5       29.97R
NASSAU         MOSUNNY   84  73  70 E3        30.09R HX  91
SAN JUAN       MOSUNNY   84  75  74 NE7       30.02R HX  92
SANTO DOMINGO  MOSUNNY   82  77  83 NE5       29.97S HX  91
ST. CROIX      MOSUNNY   86  73  66 E13       30.02  HX  93
ST. KITTS      MOSUNNY   86  75  70 NE12      30.00S HX  95
ST. MAARTEN    MOSUNNY   86  73  66 E8        30.00S HX  93

$$



USA.gov is the U.S. government's official web portal to all federal, state and local government web resources and services.